Overview Statistics Trail Chart Weather Telemetry Raw packets
 

This is the latest recevied weather packets stored in our database for station/object KH6DH-13. If no packets are shown the sender has not sent any weather packets the latest 10 day(s).

<< 4 5 6 7 8 9 10 >>
Time Temp. Humidity Pressure Rain* Wind** Luminosity Snow
1788588639 26.11° C - - 0 mm 1.34 m/s, 65° - -
1788588587 26.11° C - - 0 mm 1.34 m/s, 65° - -
1788587986 25.56° C - - 0 mm 1.79 m/s, 13° - -
1788587385 26.11° C - - 0 mm 1.79 m/s, 10° - -
1788586784 26.11° C - - 0 mm 3.58 m/s, 32° - -
1788586183 26.11° C - - 0 mm 1.79 m/s, 39° - -
1788585582 26.11° C - - 0 mm 2.68 m/s, 51° - -
1788584981 26.11° C - - 0 mm 2.68 m/s, 27° - -
1788584380 26.67° C - - 0 mm 1.79 m/s, 76° - -
1788583779 26.67° C - - 0 mm 1.34 m/s, 14° - -
1788583178 26.67° C - - 0 mm 1.34 m/s, 34° - -
1788582577 27.22° C - - 0 mm 1.34 m/s, 215° - -
1788581976 27.78° C - - 0 mm 3.13 m/s, 353° - -
1788581378 28.33° C - - 0 mm 1.79 m/s, 124° - -
1788580774 28.89° C - - 0 mm 1.79 m/s, 107° - -
1788580170 28.89° C - - 0 mm 1.79 m/s, 45° - -
1788579567 28.89° C - - 0 mm 1.34 m/s, 35° - -
1788578962 29.44° C - - 0 mm 1.79 m/s, 354° - -
1788578358 30° C - - 0 mm 2.24 m/s, 97° - -
1788577755 30° C - - 0 mm 1.34 m/s, 90° - -
1788577152 30° C - - 0 mm 0.45 m/s, 80° - -
1788576551 30° C - - 0 mm 2.68 m/s, 128° - -
1788575950 30° C - - 0 mm 2.24 m/s, 48° - -
1788575349 30° C - - 0 mm 0 m/s - -
1788574748 29.44° C - - 0 mm 1.79 m/s, 105° - -

* Rain latest hour (hover to see other rain measurements)
** Current wind speed in m/s (hover to see current wind gust speed)